| time (UTC) | temp F | wind direction | speed knots | gust knots | rain 1hr in | rain 24hr in | rain mn in | humidity % | barometer mb |
| 20260508233003 | 74 | 100 | 4.3 | 7.8 | 0.00 | 0.02 | 0.02 | 94 | 1009.3 |
| 20260508231503 | 74 | 107 | 5.2 | 7.8 | 0.00 | 0.02 | 0.02 | 94 | 1009.3 |
| 20260508230003 | 74 | 65 | 5.2 | 7.8 | 0.00 | 0.02 | 0.02 | 94 | 1009.3 |
| 20260508224647 | 74 | 94 | 5.2 | 7.8 | 0.00 | 0.02 | 0.02 | 94 | 1009.5 |
| 20260508223100 | 74 | 74 | 1.7 | 7.8 | 0.00 | 0.02 | 0.02 | 93 | 1009.7 |
| 20260508221559 | 74 | 98 | 5.2 | 7.8 | 0.00 | 0.02 | 0.02 | 93 | 1009.5 |
| 20260508220058 | 74 | 102 | 4.3 | 7.8 | 0.00 | 0.02 | 0.02 | 93 | 1009.7 |
| 20260508214556 | 74 | 115 | 4.3 | 8.7 | 0.00 | 0.02 | 0.02 | 94 | 1009.8 |
| 20260508213053 | 73 | 83 | 5.2 | 7.0 | 0.00 | 0.02 | 0.02 | 94 | 1009.8 |
| 20260508211552 | 73 | 121 | 4.3 | 7.0 | 0.00 | 0.02 | 0.02 | 94 | 1010.0 |
| 20260508210048 | 72 | 113 | 2.6 | 7.0 | 0.00 | 0.02 | 0.02 | 94 | 1010.4 |
| 20260508204544 | 72 | 73 | 3.5 | 7.0 | 0.00 | 0.02 | 0.02 | 94 | 1010.8 |
| 20260508203043 | 72 | 107 | 3.5 | 7.8 | 0.00 | 0.02 | 0.02 | 95 | 1010.8 |
| 20260508201537 | 71 | 90 | 4.3 | 8.7 | 0.00 | 0.02 | 0.02 | 95 | 1010.9 |
| 20260508200037 | 71 | 107 | 6.1 | 9.6 | 0.00 | 0.02 | 0.02 | 95 | 1011.2 |
| 20260508194540 | 70 | 97 | 4.3 | 7.8 | 0.00 | 0.02 | 0.02 | 95 | 1011.1 |
| 20260508193033 | 70 | 80 | 3.5 | 7.0 | 0.00 | 0.02 | 0.02 | 96 | 1011.3 |
| 20260508191536 | 69 | 86 | 3.5 | 7.8 | 0.00 | 0.02 | 0.02 | 96 | 1011.9 |
| 20260508190028 | 69 | 59 | 4.3 | 8.7 | 0.00 | 0.02 | 0.02 | 96 | 1011.9 |
| 20260508184528 | 69 | 77 | 2.6 | 6.1 | 0.00 | 0.02 | 0.02 | 95 | 1012.3 |
| 20260508183032 | 69 | 44 | 2.6 | 8.7 | 0.01 | 0.02 | 0.02 | 95 | 1012.2 |
| 20260508181525 | 69 | 55 | 3.5 | 7.8 | 0.01 | 0.02 | 0.02 | 96 | 1012.0 |
| 20260508180026 | 68 | 57 | 3.5 | 7.8 | 0.01 | 0.02 | 0.02 | 96 | 1012.1 |
| 20260508174522 | 68 | 74 | 3.5 | 7.8 | 0.01 | 0.02 | 0.02 | 96 | 1012.2 |
| 20260508173020 | 68 | 85 | 5.2 | 7.8 | 0.01 | 0.01 | 0.01 | 96 | 1012.4 |
| 20260508171518 | 68 | 90 | 2.6 | 5.2 | 0.01 | 0.01 | 0.01 | 96 | 1012.8 |
| 20260508170019 | 68 | 80 | 3.5 | 7.8 | 0.01 | 0.01 | 0.01 | 96 | 1013.0 |
| 20260508164516 | 68 | 51 | 2.6 | 5.2 | 0.01 | 0.01 | 0.01 | 95 | 1013.2 |
| 20260508163027 | 67 | 53 | 3.5 | 7.0 | 0.00 | 0.00 | 0.00 | 94 | 1013.5 |
| 20260508161514 | 68 | 50 | 2.6 | 5.2 | 0.00 | 0.00 | 0.00 | 94 | 1013.9 |
| 20260508160020 | 68 | 67 | 2.6 | 8.7 | 0.00 | 0.00 | 0.00 | 93 | 1013.7 |
| 20260508154516 | 67 | 52 | 3.5 | 7.0 | 0.00 | 0.00 | 0.00 | 93 | 1013.2 |
| 20260508153011 | 67 | 79 | 3.5 | 8.7 | 0.00 | 0.00 | 0.00 | 93 | 1013.0 |
| 20260508151512 | 67 | 10 | 1.7 | 7.0 | 0.00 | 0.00 | 0.00 | 94 | 1013.4 |
| 20260508150030 | 66 | 68 | 2.6 | 7.0 | 0.00 | 0.00 | 0.00 | 94 | 1013.2 |
| 20260508144510 | 66 | 312 | 1.7 | 5.2 | 0.00 | 0.00 | 0.00 | 94 | 1013.6 |
| 20260508143011 | 66 | 53 | 0.9 | 4.3 | 0.00 | 0.00 | 0.00 | 94 | 1013.5 |
| 20260508141508 | 66 | 80 | 0.0 | 5.2 | 0.00 | 0.00 | 0.00 | 94 | 1013.6 |
| 20260508140013 | 66 | 82 | 2.6 | 5.2 | 0.00 | 0.00 | 0.00 | 93 | 1013.6 |
| 20260508134507 | 66 | 82 | 1.7 | 3.5 | 0.00 | 0.00 | 0.00 | 93 | 1013.8 |
| 20260508133009 | 66 | 23 | 0.9 | 5.2 | 0.00 | 0.00 | 0.00 | 92 | 1013.9 |
| 20260508131506 | 66 | 88 | 2.6 | 6.1 | 0.00 | 0.00 | 0.00 | 92 | 1013.5 |
| 20260508130005 | 66 | 5 | 2.6 | 7.0 | 0.00 | 0.00 | 0.00 | 91 | 1013.7 |
| 20260508124506 | 66 | 19 | 1.7 | 7.8 | 0.00 | 0.00 | 0.00 | 91 | 1013.7 |
| 20260508123004 | 66 | 51 | 0.9 | 3.5 | 0.00 | 0.00 | 0.00 | 91 | 1013.6 |
| 20260508121503 | 66 | 91 | 1.7 | 5.2 | 0.00 | 0.00 | 0.00 | 90 | 1013.3 |
| 20260508120003 | 66 | 57 | 2.6 | 4.3 | 0.00 | 0.00 | 0.00 | 89 | 1013.7 |
| 20260508114503 | 66 | 26 | 2.6 | 4.3 | 0.00 | 0.00 | 0.00 | 89 | 1014.0 |
| 20260508113004 | 66 | 302 | 1.7 | 5.2 | 0.00 | 0.00 | 0.00 | 89 | 1014.1 |
| 20260508111503 | 66 | 332 | 1.7 | 7.0 | 0.00 | 0.00 | 0.00 | 89 | 1014.0 |
| 20260508110111 | 66 | 14 | 0.9 | 7.0 | 0.00 | 0.00 | 0.00 | 89 | 1013.9 |
| 20260508104613 | 66 | 330 | 0.9 | 6.1 | 0.00 | 0.00 | 0.00 | 89 | 1013.8 |
| 20260508103103 | 65 | 71 | 1.7 | 4.3 | 0.00 | 0.00 | 0.00 | 88 | 1013.5 |
| 20260508101558 | 65 | 306 | 0.9 | 4.3 | 0.00 | 0.00 | 0.00 | 88 | 1013.9 |
| 20260508100058 | 65 | 42 | 2.6 | 7.0 | 0.00 | 0.00 | 0.00 | 88 | 1013.4 |
| 20260508094556 | 65 | 84 | 2.6 | 5.2 | 0.00 | 0.00 | 0.00 | 87 | 1013.4 |
| 20260508093056 | 65 | 18 | 3.5 | 9.6 | 0.00 | 0.00 | 0.00 | 86 | 1013.7 |
| 20260508091608 | 66 | 5 | 1.7 | 7.0 | 0.00 | 0.00 | 0.00 | 86 | 1013.9 |
| 20260508090055 | 66 | 39 | 0.9 | 3.5 | 0.00 | 0.00 | 0.00 | 86 | 1013.1 |
| 20260508084602 | 66 | 15 | 1.7 | 5.2 | 0.00 | 0.00 | 0.00 | 86 | 1013.1 |
| 20260508083058 | 66 | 360 | 1.7 | 5.2 | 0.00 | 0.00 | 0.00 | 86 | 1013.6 |
| 20260508081551 | 66 | 343 | 1.7 | 5.2 | 0.00 | 0.00 | 0.00 | 85 | 1013.4 |
| 20260508074547 | 66 | 350 | 1.7 | 4.3 | 0.00 | 0.00 | 0.00 | 85 | 1013.8 |
| 20260508073054 | 66 | 336 | 1.7 | 5.2 | 0.00 | 0.00 | 0.00 | 85 | 1014.2 |
| 20260508071545 | 66 | 5 | 2.6 | 6.1 | 0.00 | 0.00 | 0.00 | 85 | 1014.3 |
| 20260508070044 | 66 | 21 | 2.6 | 4.3 | 0.00 | 0.00 | 0.00 | 85 | 1014.4 |
| 20260508064547 | 67 | 355 | 2.6 | 7.0 | 0.00 | 0.00 | 0.00 | 85 | 1014.3 |
| 20260508063043 | 67 | 22 | 1.7 | 4.3 | 0.00 | 0.00 | 0.00 | 85 | 1014.4 |
| 20260508061542 | 67 | 355 | 0.9 | 3.5 | 0.00 | 0.00 | 0.00 | 85 | 1014.4 |
| 20260508060039 | 67 | 46 | 0.9 | 3.5 | 0.00 | 0.00 | 0.00 | 85 | 1014.0 |
| 20260508054545 | 66 | 28 | 1.7 | 4.3 | 0.00 | 0.00 | 0.00 | 85 | 1013.6 |
| 20260508053032 | 66 | 351 | 0.9 | 3.5 | 0.00 | 0.00 | 0.00 | 84 | 1014.2 |
| 20260508051537 | 66 | 348 | 0.9 | 5.2 | 0.00 | 0.00 | 0.00 | 84 | 1014.3 |
| 20260508050033 | 66 | 350 | 1.7 | 5.2 | 0.00 | 0.00 | 0.00 | 84 | 1014.4 |
| 20260508044528 | 66 | 355 | 1.7 | 5.2 | 0.00 | 0.00 | 0.00 | 84 | 1014.5 |
| 20260508043027 | 66 | 322 | 1.7 | 7.0 | 0.00 | 0.00 | 0.00 | 84 | 1014.4 |
| 20260508041527 | 66 | 360 | 1.7 | 5.2 | 0.00 | 0.00 | 0.00 | 84 | 1014.5 |
| 20260508040040 | 66 | 39 | 1.7 | 5.2 | 0.00 | 0.00 | 0.00 | 84 | 1014.3 |
| 20260508034538 | 66 | 34 | 0.9 | 5.2 | 0.00 | 0.00 | 0.00 | 84 | 1014.1 |
| 20260508033021 | 67 | 40 | 0.9 | 4.3 | 0.00 | 0.00 | 0.00 | 83 | 1013.9 |
| 20260508031522 | 66 | 22 | 2.6 | 9.6 | 0.00 | 0.00 | 0.00 | 82 | 1013.5 |
| 20260508030055 | 67 | 77 | 5.2 | 7.8 | 0.00 | 0.00 | 0.00 | 81 | 1013.6 |
| 20260508024551 | 67 | 55 | 2.6 | 5.2 | 0.00 | 0.00 | 0.00 | 81 | 1014.6 |
| 20260508023051 | 68 | 346 | 0.9 | 5.2 | 0.00 | 0.00 | 0.00 | 81 | 1014.6 |
| 20260508021551 | 68 | 39 | 0.9 | 5.2 | 0.00 | 0.00 | 0.00 | 80 | 1014.5 |
| 20260508020055 | 68 | 336 | 1.7 | 7.8 | 0.00 | 0.00 | 0.00 | 79 | 1014.9 |
| 20260508014550 | 69 | 321 | 1.7 | 7.8 | 0.00 | 0.00 | 0.00 | 78 | 1014.5 |
| 20260508013049 | 70 | 13 | 1.7 | 7.8 | 0.00 | 0.00 | 0.00 | 78 | 1014.3 |
| 20260508011549 | 71 | 309 | 2.6 | 8.7 | 0.00 | 0.00 | 0.00 | 77 | 1014.5 |
| 20260508010048 | 72 | 61 | 1.7 | 7.8 | 0.00 | 0.00 | 0.00 | 76 | 1014.2 |
| 20260508004551 | 72 | 49 | 3.5 | 7.8 | 0.00 | 0.00 | 0.00 | 76 | 1014.4 |
| 20260508003050 | 73 | 67 | 1.7 | 7.8 | 0.00 | 0.00 | 0.00 | 75 | 1014.5 |
| 20260508001546 | 73 | 26 | 2.6 | 8.7 | 0.00 | 0.00 | 0.00 | 77 | 1014.3 |
| 20260508000047 | 74 | 315 | 1.7 | 8.7 | 0.00 | 0.00 | 0.00 | 76 | 1014.6 |
| 20260507234553 | 74 | 347 | 3.5 | 9.6 | 0.00 | 0.00 | 0.00 | 76 | 1014.5 |